Ana Sayfa
METAR-TAF:

METAR-TAF

Havaalanları :

Alpine-Casparis Municipal Airport

Alpine, Teksas, Amerika Birleşik Devletleri

Enlem: 30-23-03N, Boylam: 103-41-00W, yükseklik: 1376 m

Güncel hava durumu gözlemi

Rapor saat 18:55 UTC de 20 dakika önce yapıldı.
Rüzgar güney/güneydoğudan 6 kt
Sıcaklık 35°C
Nem 13%
Basınç 1020 hPa
Görüş mesafesi: 16.1 km
Açık gökyüzü

METAR: KE38 051855Z AUTO 16006KT 10SM CLR 35/03 A3012 RMK AO2 T03480030

Saat: 14:15 (19:15 UTC)


TAF: eksik

4.000'den fazla havaalanı için hava durumu gözlemleri ve tahminleri (METAR ve TAF raporları).

Kullanılabilir istasyonlar harita üzerinde sarı ve kırmızı noktalarla gösterilir.

İstasyonun adını görmek için fareyi noktanın üzerinde gezdirin.

Sonrasında hava gözlem ve tahminlerini görmek için tıklayın.

Haritayı değiştirmek için: yaklaştırmak için siyah artı işaretli yeşil düğmeye ve uzaklaştırmak için de eksi işaretli düğmeye hızla tıklayın; bitişik haritalar için yeşil okları kullanın.


METAR-TAF: